Flag for Argentina Weather past 2 weeks in Salta, Salta, Argentina

Now
70 °F

Overcast.


Feels Like: 70 °F
Forecast: N/A
Wind: 2 mph from Northeast

Location: Salta Aerodrome

Current Time: Sep 17, 2014 at 8:46:26 PM

Latest Report: Sep 17, 2014 at 8:00 PM


Visibility: N/A

Pressure: 30.01 "Hg

Humidity: 46%

Dew point: 48 °F

Location of SaltaLocation

Historic Weather in Salta — Graph

°F

Salta temperature yesterday

Maximum temperature yesterday: 75 °F (at 4:00 PM)
Minimum temperature yesterday: 43 °F (at 7:00 AM)
Average temperature yesterday: 61 °F

Past Weeks' High & Low Weather Summary

 TemperatureHumidityPressure
High95 °F (Sep 9, 4:00 PM)94% (Sep 8, 7:00 AM)30.39 "Hg (Sep 8, 7:00 AM)
Low39 °F (Sep 12, 6:00 AM)9% (Sep 9, 5:00 PM)29.62 "Hg (Sep 9, 4:00 PM)
Average63 °F57%30.02 "Hg
* Reported Sep 2 7:00 PM — Sep 17 7:00 PM, Salta, Weather by CustomWeather, © 2014

Note: Actual official high and low records may vary slightly from our data, if they occured in-between our weather recording intervals... More about our weather records

Advertising

Salta weather history for previous 24 hours

 ConditionsComfort  
Time TempWeatherWind HumidityBarometerVisibility
7:00 PM
Sep 17
72 °FOvercast.5 mph38%30.01 "HgN/A
6:00 PM73 °FSunny.8 mph33%29.98 "Hg10 mi
5:00 PM75 °FSunny.5 mph34%29.95 "Hg10 mi
4:00 PM73 °FSunny.8 mph33%29.95 "Hg10 mi
3:00 PM73 °FSunny.7 mph36%29.98 "Hg10 mi
2:00 PM75 °FSunny.6 mph34%30.01 "Hg10 mi
1:00 PM73 °FSunny.7 mph36%30.04 "Hg10 mi
12:00 PM72 °FPartly sunny.5 mph38%30.07 "HgN/A
11:00 AM68 °FPartly sunny.2 mph43%30.07 "HgN/A
10:00 AM61 °FSunny.No wind55%30.09 "Hg10 mi
9:00 AM54 °FSunny.2 mph77%30.09 "Hg10 mi
8:00 AM46 °FPartly sunny.No wind93%30.07 "HgN/A
7:00 AM45 °FSunny.No wind87%30.07 "Hg10 mi
6:00 AM46 °FClear.5 mph82%30.01 "Hg10 mi
5:00 AM48 °FClear.No wind82%30.01 "Hg10 mi
4:00 AM48 °FClear.3 mph82%30.01 "Hg10 mi
3:00 AM50 °FClear.2 mph76%30.04 "Hg10 mi
2:00 AM52 °FClear.1 mph77%30.04 "Hg10 mi
1:00 AM55 °FClear.2 mph67%30.07 "Hg10 mi
12:00 AM57 °FClear.3 mph63%30.07 "Hg10 mi
11:00 PM
Sep 16
59 °FClear.No wind59%30.07 "Hg10 mi
10:00 PM61 °FClear.No wind55%30.07 "Hg10 mi
9:00 PM64 °FClear.5 mph49%30.04 "Hg10 mi
8:00 PM68 °FClear.7 mph40%30.01 "Hg10 mi
Weather by CustomWeather, © 2014

See weather overviewHow to use our weather pages